Regional Weather Roundup
Issued by NWS

Home | Current Version | Previous Version | Graphics & Text | Print | Product List | Glossary On
Versions: 1 2 3 4 5 6 7 8 9 10 11 12 13 14 15 16 17 18 19 20 21 22 23 24 25 26 27 28 29 30 31 32 33 34 35 36 37 38 39 40 41 42 43 44 45 46 47 48 49 50
000
ASUS43 KLMK 230110
RWRKY
KENTUCKY REGIONAL WEATHER ROUNDUP
NATIONAL WEATHER SERVICE LOUISVILLE KY
800 PM EST SUN JAN 22 2017

NOTE "FAIR" INDICATES FEW OR NO CLOUDS BELOW 12,000 FEET
WITH NO SIGNIFICANT WEATHER AND/OR OBSTRUCTIONS TO VISIBILITY.

KYZ001>023-026-027-061>063-070>075-230200-
WESTERN AND SOUTH CENTRAL KENTUCKY

CITY           SKY/WX    TMP DP  RH WIND       PRES   REMARKS
PADUCAH        LGT RAIN  57  51  80 N12       29.42R
HENDERSON      CLOUDY    57  48  72 N8        29.43R
OWENSBORO      CLOUDY    58  51  78 N8        29.41S
HOPKINSVILLE   CLOUDY    58  54  84 N13       29.33F
BOWLING GREEN  CLOUDY    58  52  80 N12       29.33F
GLASGOW        MOCLDY    55  51  87 N9        29.31F
$$

KYZ024-025-028>034-038-045-046-053-230200-
NORTH CENTRAL KENTUCKY

CITY           SKY/WX    TMP DP  RH WIND       PRES   REMARKS
LOUISVILLE/SDF CLOUDY    61  49  64 N10       29.39S
LOUISVILLE/LOU CLOUDY    61  50  67 N8        29.40S
FORT KNOX      CLOUDY    57  51  81 N8        29.36F
$$

KYZ035>037-039>044-047>052-055>060-089>105-230200-
NORTHEAST KENTUCKY

CITY           SKY/WX    TMP DP  RH WIND       PRES   REMARKS
LEXINGTON      CLOUDY    56  50  80 NE12      29.38S
COVINGTON      CLOUDY    58  48  69 NE16      29.44F
FRANKFORT      CLOUDY    57  50  77 NE7       29.38F
$$

KYZ054-064>069-076>088-106>120-230200-
SOUTHEAST KENTUCKY

CITY           SKY/WX    TMP DP  RH WIND       PRES   REMARKS
JACKSON        CLOUDY    54  51  90 VRB7      29.36S
LONDON         CLOUDY    55  51  86 NE10      29.31F
SOMERSET       CLOUDY    52  52 100 NE10      29.32F
MIDDLESBORO    DRIZZLE   54  54 100 CALM      29.31F
MONTICELLO     CLOUDY    54  52  93 N15G22    29.31F
$$




USA.gov is the U.S. government's official web portal to all federal, state and local government web resources and services.